This is the latest recevied weather packets stored in our database for station/object K0FJ-1. If no packets are shown the sender has not sent any weather packets the latest 10 day(s).
| Time | Temp. | Humidity | Pressure | Rain* | Wind** | Luminosity | Snow |
|---|---|---|---|---|---|---|---|
| 1787968503 | 30° C | 51% | 1015.9 hPa | 0 mm | - | - | - |
| 1787968203 | 30° C | 51% | 1015.9 hPa | 0 mm | - | - | - |
| 1787967903 | 30° C | 50% | 1015.9 hPa | 0 mm | - | - | - |
| 1787967603 | 30° C | 50% | 1015.9 hPa | 0 mm | - | - | - |
| 1787967303 | 30.56° C | 50% | 1015.9 hPa | 0 mm | - | - | - |
| 1787967003 | 30.56° C | 49% | 1016 hPa | 0 mm | - | - | - |
| 1787966703 | 31.11° C | 49% | 1015.9 hPa | 0 mm | - | - | - |
| 1787966404 | 31.11° C | 48% | 1015.9 hPa | 0 mm | - | - | - |
| 1787966103 | 31.11° C | 48% | 1015.9 hPa | 0 mm | - | - | - |
| 1787965803 | 31.67° C | 48% | 1015.9 hPa | 0 mm | - | - | - |
| 1787965503 | 31.67° C | 47% | 1015.8 hPa | 0 mm | - | - | - |
| 1787965203 | 31.67° C | 47% | 1015.8 hPa | 0 mm | - | - | - |
| 1787964903 | 32.22° C | 46% | 1015.8 hPa | 0 mm | - | - | - |
| 1787964603 | 32.22° C | 45% | 1015.9 hPa | 0 mm | - | - | - |
| 1787964303 | 32.22° C | 45% | 1015.7 hPa | 0 mm | - | - | - |
| 1787964003 | 32.22° C | 44% | 1015.7 hPa | 0 mm | - | - | - |
| 1787963703 | 32.22° C | 43% | 1015.7 hPa | 0 mm | - | - | - |
| 1787963403 | 32.78° C | 42% | 1015.7 hPa | 0 mm | - | - | - |
| 1787963103 | 32.78° C | 42% | 1015.8 hPa | 0 mm | - | - | - |
| 1787962803 | 32.78° C | 42% | 1015.8 hPa | 0 mm | - | - | - |
| 1787962503 | 33.33° C | 43% | 1015.7 hPa | 0 mm | - | - | - |
| 1787962203 | 33.33° C | 42% | 1015.7 hPa | 0 mm | - | - | - |
| 1787961903 | 33.33° C | 42% | 1015.7 hPa | 0 mm | - | - | - |
| 1787961603 | 32.78° C | 42% | 1015.7 hPa | 0 mm | - | - | - |
| 1787961305 | 32.78° C | 42% | 1015.7 hPa | 0 mm | - | - | - |
* Rain latest hour (hover to see other rain measurements)
** Current wind speed in m/s (hover to see current wind gust speed)